User: anonymous   Login
Location: Heilwood
(40.6210°N, 78.9150°W)
Time: 10:01:41
(UTC-05:00)
Language:

Iridium 4 Rocket - Orbit

View from above orbital plane
View from above orbital plane
View from above satellite
View from above satellite

Ground track
Ground track

The orbit data is extracted from the following two-line orbital elements,

1 24797U 97020F   15060.67327434  .00000656  00000-0  13768-3 0  9990
2 24797 086.8958 300.3384 0225003 231.9905 151.0048 14.43490569936964
Epoch (UTC): 01 March 2015 16:09:30
Eccentricity: 0.0225003
inclination: 86.8958°
perigee height: 586 km
apogee height: 907 km
right ascension of ascending node: 300.3384°
argument of perigee: 231.9905°
revolutions per day: 14.43490569
mean anomaly at epoch: 151.0048°
orbit number at epoch: 93696

The dashed part of the orbit path shows where the satellite is in the earth's shadow,  

DLR